citizensvoice.com alexa rank chart, citizensvoice.com alexa rank daily changes

citizensvoice.com alexa rank chart, citizensvoice.com alexa rank daily changes

citizensvoice.com
Actual rank:
142 995

RANK HISTORY

Date Rank Diff
2017/01/19 142 995 -2 432
2017/01/18 145 427 +2 564
2017/01/17 142 863 -479
2017/01/16 143 342 -1 461
2017/01/15 144 803 -949
2017/01/14 145 752 -1 851
2017/01/13 147 603 -4 146
2017/01/12 151 749 -719
2017/01/11 152 468 -67
2017/01/10 152 535 -592
2017/01/09 153 127 -772
2017/01/08 153 899 +1 344
2017/01/07 152 555 -3 728
2017/01/06 156 283 -2 985
2017/01/05 159 268 -933
2017/01/04 160 201 -2 362
2017/01/03 162 563 -3 515
2017/01/02 166 078 +678
2017/01/01 165 400 -1 814
2016/12/31 167 214 -4 048
2016/12/30 171 262 +527
2016/12/29 170 735 +1 088
2016/12/28 169 647 -75
2016/12/27 169 722 +1 326
2016/12/26 168 396 -3 382
2016/12/25 171 778 -4 163
2016/12/24 175 941 +1 261
2016/12/23 174 680 -188
2016/12/22 174 868 +1 237
2016/12/21 173 631 +2 641
2016/12/20 170 990 +3 225
2016/12/19 167 765 +4 900
2016/12/18 162 865 +1 511
2016/12/17 161 354 +1 643
2016/12/16 159 711 +2 374
2016/12/15 157 337 +2 974
2016/12/14 154 363 +4 403
2016/12/13 149 960 +3 984
2016/12/12 145 976 +2 168
2016/12/11 143 808 +2 939
2016/12/10 140 869 +3 006
2016/12/09 137 863 -2 310
2016/12/08 140 173 +3 431
2016/12/07 136 742 +2 756
2016/12/06 133 986 +2 269
2016/12/05 131 717 +4 358
2016/12/04 127 359 +888
2016/12/02 126 471 +37
2016/12/01 126 434 +2 360
2016/11/30 124 074 +1 819
2016/11/29 122 255 +1 022
2016/11/28 121 233 +4 481
2016/11/27 116 752 +2 665
2016/11/26 114 087 +3 279
2016/11/25 110 808 +7 149
2016/11/24 103 659 +712
2016/11/23 102 947

WIDGET FOR YOUR SITE

DOMAINS WITH THE NEAREST RANK

Domain Rank
canalyab.ir 142 990
irkutskenergo.ru 142 991
distilnetworks.com 142 992
posespace.com 142 993
chichowarez.com 142 994
citizensvoice.com 142 995
hr.ge 142 996
adityaeka.com 142 997
breakfreemovies.biz 142 998
fabriprint.pt 142 999
xvisitor.com 143 000

DOMAINS WITH THE NEAREST RANK BY TLD .com

Domain Rank
isbilgisi.com 142 987
1reddrop.com 142 988
distilnetworks.com 142 992
posespace.com 142 993
chichowarez.com 142 994
citizensvoice.com 142 995
adityaeka.com 142 997
xvisitor.com 143 000
iiemd.com 143 002
larosas.com 143 004
clipbomba.com 143 010